Weather History for KSTP - May, 2013

Change the Weather History Date:

Tuesday, May 28, 2013

  Actual Average Record
Temperature  
Mean Temperature 57 °F -  
Max Temperature 61 °F 69 °F 93 °F (2006)
Min Temperature 53 °F 49 °F 46 °F (2004)
Degree Days  
Heating Degree Days 8    
Growing Degree Days 7 (Base 50)    
Moisture  
Dew Point 53 °F    
Average Humidity 88    
Maximum Humidity 94    
Minimum Humidity 81    
Precipitation  
Precipitation 0.02 in - - ()
Sea Level Pressure  
Sea Level Pressure 29.76 in    
Wind  
Wind Speed 6 mph (ESE)    
Max Wind Speed 12 mph    
Max Gust Speed -    
Visibility 7 miles    
Events Rain    
Averages and records for this station are not official NWS values.
T = Trace of Precipitation, MM = Missing Value Source: NWS Daily Summary

Daily Weather History Graph

Daily Weather History Graph

Search for Another Location

Airport or City:

Trip Planner

Search our weather history database for the weather conditions in past years. The results will help you decide how hot, cold, wet, or windy it might be!

Date:

Astronomy

May. 28, 2013 Rise Set
Actual Time 5:31 AM CDT 8:48 PM CDT
Civil Twilight 4:55 AM CDT 9:24 PM CDT
Nautical Twilight 4:08 AM CDT 10:11 PM CDT
Astronomical Twilight 3:11 AM CDT 11:09 PM CDT
Moon No Moon Rise 9:24 AM CDT (5/28)
Length of Visible Light 16h 28m
Length of Day
15h 17m
Waning Gibbous, 82% of the Moon is Illuminated
May 28
Waning Gibbous
May 31
Last Quarter
Jun 8
New
Jun 16
First Quarter
Jun 23
Full

Hourly Weather History & Observations

Time (CDT) Temp. Dew Point Humidity Pressure Visibility Wind Dir Wind Speed Gust Speed Precip Events Conditions
12:07 AM 55.4 °F 51.8 °F 88% 29.84 in 10.0 mi ESE 9.2 mph - N/A   Overcast
12:53 AM 55.0 °F 51.1 °F 86% 29.84 in 10.0 mi ESE 11.5 mph - N/A   Overcast
1:04 AM 55.4 °F 51.8 °F 88% 29.84 in 10.0 mi ESE 10.4 mph - N/A   Overcast
1:53 AM 54.0 °F 50.0 °F 86% 29.81 in 10.0 mi East 5.8 mph - N/A   Overcast
2:53 AM 54.0 °F 50.0 °F 86% 29.80 in 10.0 mi ESE 4.6 mph - N/A   Overcast
3:53 AM 54.0 °F 51.1 °F 90% 29.78 in 10.0 mi East 5.8 mph - N/A   Overcast
4:53 AM 54.0 °F 50.0 °F 86% 29.77 in 10.0 mi East 4.6 mph - N/A   Overcast
5:53 AM 54.0 °F 50.0 °F 86% 29.77 in 10.0 mi ENE 4.6 mph - N/A   Overcast
6:53 AM 54.0 °F 50.0 °F 86% 29.75 in 10.0 mi East 8.1 mph - N/A   Overcast
7:13 AM 53.6 °F 51.8 °F 94% 29.75 in 10.0 mi East 8.1 mph - N/A   Overcast
7:53 AM 54.0 °F 51.1 °F 90% 29.74 in 10.0 mi Variable 6.9 mph - N/A   Overcast
8:53 AM 55.0 °F 51.1 °F 86% 29.73 in 10.0 mi ENE 6.9 mph - N/A   Overcast
9:53 AM 55.0 °F 52.0 °F 89% 29.75 in 3.0 mi East 6.9 mph - 0.00 in Rain Light Rain
10:39 AM 55.4 °F 53.6 °F 94% 29.75 in 1.8 mi ESE 5.8 mph - 0.01 in Rain Light Rain
10:53 AM 55.9 °F 53.1 °F 90% 29.74 in 1.8 mi ESE 6.9 mph - 0.02 in Rain Light Rain
11:05 AM 57.2 °F 53.6 °F 88% 29.73 in 2.5 mi East 8.1 mph - 0.00 in Rain Light Rain
11:14 AM 57.2 °F 53.6 °F 88% 29.74 in 3.0 mi ESE 6.9 mph - 0.00 in   Overcast
11:45 AM 57.2 °F 53.6 °F 88% 29.74 in 10.0 mi SE 6.9 mph - 0.00 in   Overcast
11:53 AM 57.0 °F 53.1 °F 87% 29.74 in 10.0 mi SE 5.8 mph - 0.00 in   Overcast
12:53 PM 57.0 °F 53.1 °F 87% 29.75 in 10.0 mi Calm Calm - N/A   Overcast
1:53 PM 57.0 °F 53.1 °F 87% 29.75 in 4.0 mi Calm Calm - 0.00 in Rain Light Rain
2:22 PM 57.2 °F 53.6 °F 88% 29.74 in 2.5 mi Calm Calm - 0.00 in Rain Light Rain
2:30 PM 57.2 °F 53.6 °F 88% 29.74 in 5.0 mi Calm Calm - 0.00 in Rain Light Rain
2:45 PM 57.2 °F 55.4 °F 94% 29.75 in 8.0 mi Calm Calm - 0.00 in   Overcast
2:53 PM 57.9 °F 55.0 °F 90% 29.75 in 8.0 mi Calm Calm - 0.00 in   Overcast
3:53 PM 59.0 °F 55.0 °F 87% 29.75 in 10.0 mi Calm Calm - N/A   Overcast
4:53 PM 59.0 °F 55.0 °F 87% 29.76 in 7.0 mi Calm Calm - N/A   Overcast
5:53 PM 59.0 °F 55.0 °F 87% 29.75 in 6.0 mi Calm Calm - N/A   Overcast
6:53 PM 59.0 °F 55.0 °F 87% 29.75 in 6.0 mi SE 3.5 mph - N/A   Overcast
7:53 PM 59.0 °F 55.0 °F 87% 29.76 in 5.0 mi SSE 4.6 mph - N/A   Overcast
8:53 PM 59.0 °F 55.0 °F 87% 29.73 in 6.0 mi Calm Calm - N/A   Overcast
9:53 PM 57.9 °F 55.9 °F 93% 29.74 in 6.0 mi Calm Calm - N/A   Overcast
10:53 PM 61.0 °F 55.0 °F 81% 29.78 in 6.0 mi South 4.6 mph - N/A   Haze
11:53 PM 57.9 °F 55.0 °F 90% 29.80 in 6.0 mi Calm Calm - N/A   Overcast